Regional Weather Roundup
Issued by NWS Northern Indiana

Home | Current Version | Previous Version | Text Only | Print | Product List | Glossary On
Versions: 1 2 3 4 5 6 7 8 9 10 11 12 13 14 15 16 17 18 19 20 21 22 23 24 25 26 27 28 29 30 31 32 33 34 35 36 37 38 39 40 41 42 43 44 45 46 47 48 49 50
000
ASUS43 KIWX 240210
RWRIWX

KIWX WEATHER ROUNDUP
NATIONAL WEATHER SERVICE NORTHERN INDIANA
1000 PM EDT WED MAY 23 2018

NOTE: "FAIR" INDICATES FEW OR NO CLOUDS BELOW 12,000 FEET WITH NO
SIGNIFICANT WEATHER AND/OR OBSTRUCTIONS TO VISIBILITY.

* THESE STATIONS ARE NOT UNDER NWS QUALITY CONTROL. THEY ALSO MAY NOT
  REPORT WEATHER SUCH AS PRECIPITATION OR FOG.

INZ001>027-240300-
NORTHERN INDIANA

CITY           SKY/WX    TMP DP  RH WIND       PRES   REMARKS
GARY*          PTCLDY    61  57  88 VRB3      30.18R
VALPARAISO     FAIR      68  57  68 NE3       30.18R
LAPORTE*       FAIR      65  56  74 CALM      30.18R
KNOX*          FAIR      66  55  68 NE6       30.17R
SOUTH BEND     FAIR      66  56  70 CALM      30.18R
GOSHEN         FAIR      66  55  67 CALM      30.18R
ROCHESTER*     FAIR      70  50  49 CALM      30.17R
WARSAW*        FAIR      64  54  68 CALM      30.17R
AUBURN*        FAIR      61  57  88 CALM      30.19R
FORT WAYNE     FAIR      68  54  60 E5        30.18R
PERU/GRISSOM   CLEAR     71  52  51 E3        30.16R
MARION*        FAIR      68  52  56 CALM      30.18R

$$
INZ028>050-240300-
CENTRAL INDIANA

CITY           SKY/WX    TMP DP  RH WIND       PRES   REMARKS
LAFAYETTE      FAIR      66  56  70 N3        30.15R
KOKOMO*        FAIR      70  54  56 E5        30.18R
MUNCIE*        FAIR      67  53  61 E3        30.17R
INDIANAPOLIS   FAIR      72  52  49 E7        30.15R

$$
MIZ043>046-050>051-056>058-064>065-071>073-077>080-240300-
SOUTHWEST LOWER MICHIGAN

CITY           SKY/WX    TMP DP  RH WIND       PRES   REMARKS
BATTLE CREEK   FAIR      65  50  58 NW5       30.19R
BENTON HARBOR  FAIR      59  53  80 CALM      30.18R
COLDWATER*     FAIR      63  54  71 CALM      30.18R
HILLSDALE*     FAIR      63  52  67 CALM      30.18S
HOLLAND        FAIR      61  57  87 CALM      30.18R
GRAND RAPIDS   MOCLDY    69  54  58 N3        30.18R
KALAMAZOO      FAIR      66  55  67 CALM      30.18R
STURGIS*       FAIR      64  56  73 CALM      30.18R
THREE RIVERS*  FAIR      66  54  65 W3        30.18R

$$
OHZ001>008-015>018-024>025-240300-
NORTHWEST OHIO

CITY           SKY/WX    TMP DP  RH WIND       PRES   REMARKS
DEFIANCE       FAIR      67  54  63 E3        30.17R
FINDLAY        FAIR      65  50  58 SE7       30.17S
TOLEDO EXPRESS FAIR      65  56  72 S3        30.17R
TOLEDO METCALF FAIR      69  50  50 CALM      30.18R
LIMA           FAIR      63  53  70 E5        30.18R

$$
AND FOR LAKE MICHIGAN COASTAL AND OPEN LAKE BUOY OBSERVATIONS

STATION/POSITION TEMP    WIND        PRES    VSBY  WAVE
                 AIR SEA DIR/SP/G                  HT/PER
                 (F)     (DEG/KT/KT) (MB)    (MI)  (FT/S)
CALUMET HARBOR    56      50/  3/  5 1021.5R
MICHIGAN CITY     59      50/ 10/ 11   N/A
BURNS HARBOR      58      70/  7/  9 1022.0R
SAINT JOSEPH      60      CALM  /  1 1023.0
SOUTH LAKE BUOY   47 39   90/  4/  6 1022.5R         0
4 MI NW BRIDGMAN  58 55   50/  6/  8 1022.2          1
MICHIGAN CITY     57 57   70/  4/  6   N/A           0

$$
&&




USA.gov is the U.S. government's official web portal to all federal, state and local government web resources and services.